Wind_Speed
5 4 5 6 6 7 8 10 11 11 10 11 10 7 8 6 6 10 12 14 10 10 14 12 11 14 13 10 13 10 7 5 9 14 14 14 12 11 11 10 11 11 11 18 27 29 26 21 21 22 25 23 18 22 27 28 27 26 28 29 27 25 25 23 22 21 20 19 18 16 15 15 15 16 18 17 15 14 13 12 11 9 8 8 7 7
5 6 7 8 8 10 10 10 11 12 11 10 8 7 8 6 7 10 13 15 9 8 10 11 10 11 11 11 12 9 6 5 7 13 14 15 13 11 12 12 12 11 10 14 17 19 20 19 20 23 25 24 20 22 26 29 30 28 27 28 27 24 23 23 22 22 20 18 17 15 15 18 18 18 19 19 16 16 15 13 12 10 9 8 8 7
5 6 8 10 9 10 11 10 10 11 11 9 6 5 6 6 7 10 15 15 8 7 8 11 9 8 10 12 11 8 9 8 8 14 17 17 15 13 14 14 14 13 12 13 11 11 17 20 21 22 23 22 21 23 25 27 31 32 29 28 27 25 24 24 24 22 19 16 16 16 17 19 18 18 18 16 14 15 15 14 12 10 9 8 9 10
4 8 11 11 10 10 10 11 9 6 7 7 5 5 6 7 5 6 11 10 2 5 7 9 5 4 7 8 8 6 8 9 9 13 16 17 16 16 16 15 15 15 13 13 11 9 14 19 22 22 21 19 21 23 25 26 29 31 31 29 29 28 27 27 25 20 17 15 16 18 19 19 20 19 17 14 13 14 14 14 12 10 9 8 9 11
8 10 11 11 12 11 10 11 7 3 3 4 5 6 5 9 7 5 9 9 5 3 6 7 3 5 3 3 5 5 4 7 7 9 11 12 14 15 15 14 15 16 14 12 13 10 11 17 21 22 21 18 19 23 24 24 27 30 32 31 29 29 28 26 22 19 18 18 20 22 23 23 22 21 19 16 15 16 16 13 12 12 10 10 12 12
12 11 9 12 14 13 11 11 6 5 2 4 4 6 8 11 10 9 11 8 6 4 2 6 4 5 5 2 6 6 4 7 6 8 8 9 13 14 13 13 13 12 10 11 12 10 13 18 20 23 23 20 20 23 22 23 26 29 30 30 30 30 28 25 22 21 22 22 24 27 26 25 23 21 18 17 17 18 16 14 13 12 11 11 12 11
8 11 9 12 13 14 13 9 5 6 2 3 4 6 9 11 8 8 10 6 0 3 2 5 5 3 5 5 7 5 6 6 6 8 8 12 13 12 11 11 10 8 10 12 12 12 15 17 16 17 20 21 22 22 22 23 25 26 27 30 33 33 31 27 25 25 25 24 23 24 23 22 22 20 17 15 16 17 17 15 14 13 11 10 9 9
8 12 10 8 9 9 7 5 5 6 4 4 4 7 12 11 8 7 6 6 3 3 1 3 6 2 3 6 8 7 5 3 7 8 9 13 13 12 11 10 9 12 13 13 15 15 14 14 13 14 16 17 21 22 22 23 24 25 27 30 33 33 31 29 28 27 26 25 23 23 22 21 20 20 18 17 17 18 17 14 13 13 10 9 9 10
8 11 9 7 5 3 3 4 5 6 5 5 6 9 12 11 10 6 5 6 3 4 2 3 5 3 3 6 7 6 5 4 7 9 13 14 14 13 11 10 13 15 14 15 15 13 13 14 17 21 19 17 22 25 24 23 24 26 28 30 31 31 30 30 30 28 26 25 25 24 22 21 21 21 19 18 18 17 14 13 14 14 12 11 12 12
5 8 10 8 5 2 3 4 5 6 6 6 8 9 9 9 10 7 5 5 1 3 3 5 3 3 3 6 5 4 5 7 6 9 14 15 14 13 12 14 15 13 14 15 15 14 16 20 25 30 29 26 27 26 24 23 25 27 28 30 31 29 30 31 30 28 27 27 26 22 21 24 25 22 19 18 17 15 14 15 15 14 13 12 12 13
7 5 6 7 6 5 4 4 6 9 8 6 7 7 7 7 7 6 5 3 3 1 5 6 3 3 2 5 4 4 6 8 8 9 13 14 14 13 13 15 14 11 12 13 13 13 17 22 27 31 30 30 30 28 26 26 27 29 30 30 30 29 29 30 29 28 28 28 25 22 23 26 25 22 20 19 18 16 15 16 16 14 13 11 10 11
11 6 1 2 3 4 5 5 7 10 10 7 5 4 4 5 4 3 1 3 2 4 5 6 4 4 3 5 4 3 4 3 10 12 13 14 14 13 14 14 11 10 10 11 11 11 13 16 20 24 26 28 31 31 31 31 31 31 31 31 31 30 30 31 29 29 30 29 25 22 23 23 22 21 21 21 19 17 15 15 15 15 14 12 10 9
8 5 3 3 2 1 4 5 6 7 7 6 5 3 2 2 3 3 1 3 4 4 5 6 5 4 4 4 3 6 9 6 9 14 15 14 15 15 16 15 11 9 10 10 11 12 12 12 15 19 23 26 30 33 35 35 34 34 32 32 33 32 31 30 29 28 28 26 22 21 21 21 21 21 21 20 19 16 15 15 17 16 14 13 12 11
4 5 4 5 3 3 5 4 4 5 2 5 5 4 3 1 0 2 3 2 3 4 6 7 6 5 2 2 4 7 8 7 10 14 14 15 16 16 17 15 12 11 10 10 12 13 12 12 15 18 21 23 26 30 33 34 34 33 31 31 31 31 31 30 29 26 24 23 21 20 21 22 21 21 20 19 18 17 15 16 17 15 14 15 15 14
3 5 5 5 4 6 7 5 5 4 1 4 4 4 4 4 4 3 2 3 3 4 3 2 3 3 2 1 4 6 10 9 11 11 12 15 15 16 16 14 12 11 9 9 11 11 11 13 16 18 20 20 18 18 22 24 24 24 25 26 27 28 29 29 27 24 23 22 20 20 22 22 21 20 19 19 17 17 16 15 15 15 16 17 16 15
3 5 7 9 8 8 8 7 5 3 2 2 2 2 4 4 5 3 2 4 4 0 2 1 2 2 3 3 5 6 11 11 12 11 13 15 14 14 13 12 11 9 8 8 8 9 8 10 13 14 14 15 14 13 16 17 18 19 23 24 24 26 28 27 25 22 21 21 19 20 22 21 20 19 18 19 17 16 15 14 14 17 17 17 17 16
3 4 3 7 10 9 9 8 6 3 2 2 1 3 6 5 7 3 1 2 3 3 3 1 2 2 2 1 4 8 13 11 12 12 11 12 13 13 11 10 9 8 9 8 7 7 7 8 10 11 12 14 15 15 15 16 18 20 24 25 23 23 23 24 24 22 20 20 18 19 21 20 19 18 18 18 17 16 15 14 15 18 18 17 17 16
3 5 5 2 6 6 5 8 8 6 6 3 1 4 3 1 3 3 1 2 3 2 3 2 5 1 2 1 2 9 12 9 12 12 11 11 11 11 9 9 9 9 9 8 7 7 7 8 12 14 15 16 18 19 18 19 21 22 24 25 24 23 21 21 22 21 20 19 18 19 20 19 19 18 17 17 17 16 16 15 17 19 18 17 17 15
1 3 6 2 1 3 2 4 7 6 5 5 5 4 2 2 1 1 2 2 1 2 3 1 3 2 2 2 1 7 9 8 11 11 11 11 10 9 8 8 10 10 9 9 8 8 7 9 13 18 20 21 20 21 21 21 21 21 20 21 22 22 20 20 20 19 19 18 17 18 19 18 18 17 16 16 17 16 16 16 18 19 18 17 16 16
3 2 4 5 2 2 4 1 4 5 4 5 3 1 3 3 3 1 2 3 3 2 2 1 2 2 2 4 2 5 8 9 10 10 9 9 9 9 7 7 8 8 9 8 7 7 8 10 13 16 20 22 22 21 20 19 17 16 15 16 18 19 18 18 17 16 17 18 17 17 17 17 17 17 16 16 18 17 15 16 17 17 17 16 16 17
1 4 3 5 5 3 1 3 2 1 2 4 4 2 2 1 2 2 1 2 4 3 2 1 1 3 4 3 2 5 6 7 10 11 8 8 10 10 6 6 6 7 8 7 7 6 6 8 10 10 12 16 18 18 18 16 13 12 12 12 14 17 18 18 17 16 16 16 18 18 17 17 17 16 15 16 17 16 15 15 16 16 15 16 16 17
1 2 4 2 2 1 2 4 4 6 5 2 2 3 3 2 3 3 1 3 3 3 2 4 2 3 4 2 4 5 4 5 9 11 9 8 9 9 6 5 5 6 7 7 8 9 7 9 10 8 9 12 14 13 13 12 9 9 11 13 15 17 17 16 16 16 16 15 18 20 17 16 18 17 15 16 16 16 15 15 16 16 15 16 16 16
1 2 3 2 2 3 2 6 6 8 9 6 4 4 3 2 3 4 2 3 1 2 1 2 3 2 4 3 3 6 5 5 7 9 9 8 7 6 5 4 4 4 4 4 5 6 6 9 11 9 9 9 10 10 10 9 8 10 13 13 14 14 13 13 14 15 15 13 15 20 18 16 16 16 15 16 15 15 15 15 16 15 15 16 15 14
3 1 2 1 2 2 4 7 6 8 10 6 5 7 7 6 4 2 4 3 2 0 1 3 1 3 3 5 3 6 6 6 6 8 9 8 5 6 5 3 4 5 4 3 3 5 7 9 10 11 9 7 8 11 11 9 9 14 15 10 9 12 13 12 14 16 14 11 10 13 15 14 14 15 16 16 14 14 15 15 15 15 15 16 14 14
3 1 2 3 3 4 5 5 4 7 6 3 4 7 9 10 9 4 2 4 2 2 4 5 1 3 0 5 5 7 8 7 7 8 9 8 6 6 5 5 6 6 5 4 5 6 8 7 7 8 7 5 5 5 7 7 6 6 7 6 7 10 12 11 12 14 14 12 8 5 2 2 7 11 14 15 16 15 16 16 15 14 15 14 14 14
0 2 0 3 3 1 1 2 2 2 2 2 4 9 12 12 10 4 2 4 2 1 4 5 3 2 2 4 6 8 10 9 9 10 10 8 7 6 6 6 6 7 7 8 8 7 6 7 9 9 8 6 7 10 13 11 8 8 9 9 9 8 7 5 5 9 10 10 9 5 4 5 7 12 11 11 16 17 16 15 14 14 14 13 13 13
2 3 2 2 3 4 4 4 4 3 3 3 6 10 12 11 9 6 4 1 1 3 2 2 7 8 5 4 5 7 10 11 9 10 10 9 8 8 8 8 7 8 8 9 9 8 7 9 8 9 13 14 12 14 15 11 10 9 7 6 7 7 6 5 4 7 6 6 10 8 6 8 13 16 14 13 15 16 15 15 14 14 14 12 13 13
2 1 3 2 2 3 6 5 3 4 4 4 5 9 11 11 11 9 5 3 4 3 3 0 8 10 5 3 5 6 9 10 9 9 9 9 9 8 8 9 8 8 9 10 9 8 8 7 6 8 14 14 12 15 16 12 11 11 10 9 7 5 6 5 7 9 7 7 12 11 10 13 17 18 17 17 17 17 17 16 14 14 14 12 13 13
1 0 3 5 3 2 5 7 6 4 2 3 5 8 10 11 11 8 3 6 4 5 5 4 9 9 4 4 6 6 9 10 9 9 8 8 8 8 9 11 11 12 13 13 12 11 10 9 8 9 12 12 14 17 16 12 10 11 12 11 10 10 9 5 5 7 5 4 8 10 10 14 17 18 18 18 18 19 20 17 14 13 13 12 12 13
2 1 4 4 1 3 4 6 7 5 3 3 3 5 9 10 9 7 5 7 8 9 8 11 15 11 6 6 7 8 9 9 9 10 10 10 11 12 13 13 12 13 14 13 12 12 12 11 13 17 19 19 19 18 15 12 11 11 11 10 9 10 10 7 4 5 6 4 4 6 9 11 13 15 17 17 15 16 18 18 14 11 11 10 10 13
3 2 5 6 3 3 3 6 7 6 6 4 3 3 8 10 8 6 4 6 8 9 7 10 14 9 5 5 8 9 9 11 12 12 12 11 11 13 13 12 12 13 14 12 11 12 12 13 16 21 23 23 23 24 23 19 13 10 11 11 12 12 11 10 8 8 9 8 5 5 8 9 9 11 13 15 13 12 13 15 14 12 11 10 9 11
2 1 4 5 4 4 4 4 6 8 8 6 7 6 5 6 6 4 3 3 5 7 6 7 8 5 2 4 10 11 10 13 13 11 11 10 10 13 13 11 12 13 13 12 11 12 12 12 15 18 19 21 23 23 24 26 25 21 15 10 13 16 15 13 12 11 12 13 10 6 6 6 6 6 8 10 10 11 11 12 13 13 12 11 10 10
2 2 2 3 2 4 9 6 4 7 7 5 5 7 5 2 7 7 6 5 5 6 5 3 4 4 1 5 11 11 10 12 10 8 9 9 10 12 11 10 11 11 11 11 10 10 10 11 14 17 19 21 22 22 25 29 30 30 27 21 15 16 16 15 15 15 14 14 13 10 10 12 13 11 12 13 13 15 14 11 11 11 11 11 12 12
1 4 3 2 3 2 8 8 5 5 5 1 6 8 4 5 10 9 6 6 6 6 7 7 7 6 4 7 11 9 8 10 8 7 8 8 8 9 9 9 9 10 10 10 9 9 10 13 16 20 22 22 23 24 28 32 31 30 32 32 27 24 24 25 27 25 21 18 14 11 9 11 12 12 14 16 15 13 9 7 7 8 8 9 11 11
4 5 3 2 3 1 4 7 5 2 1 3 7 8 6 8 12 11 8 7 10 13 14 12 10 9 7 8 9 9 10 9 8 8 9 8 7 8 9 9 8 9 10 9 9 10 13 16 19 22 23 23 25 28 30 31 31 31 32 32 30 29 29 30 30 30 29 28 27 24 22 17 13 11 8 8 8 7 6 7 7 7 7 8 9 9
5 4 3 3 3 1 1 3 2 2 1 3 6 9 10 7 7 9 9 8 7 12 14 12 10 10 10 10 9 9 9 9 8 8 8 7 6 7 8 7 7 9 10 9 10 12 15 18 20 22 23 23 24 28 28 28 28 29 30 30 28 28 29 29 29 28 28 27 27 27 28 26 23 20 18 16 12 8 3 5 7 7 7 7 7 9
5 3 2 2 2 2 3 2 1 1 2 4 5 6 6 4 4 3 4 5 6 8 13 12 12 11 11 11 9 8 9 9 9 6 4 5 6 6 7 7 7 8 10 11 13 14 15 17 20 22 24 25 25 25 24 24 25 26 27 27 27 26 26 26 26 25 24 23 22 22 24 25 24 21 19 18 16 15 12 6 1 3 5 6 6 8
5 4 2 2 1 1 4 3 1 1 0 2 3 6 5 3 6 6 2 4 5 6 11 13 13 12 11 10 9 7 5 7 7 2 2 2 4 5 7 9 10 11 11 13 15 15 16 18 19 22 23 24 24 23 22 22 23 24 25 25 24 23 24 24 24 22 21 20 18 17 18 20 21 20 18 17 16 15 14 12 10 8 5 5 7 9
8 7 5 4 2 2 4 3 1 2 1 2 4 6 6 4 7 7 3 4 3 6 9 11 12 11 9 9 8 5 3 5 4 2 3 3 3 5 6 6 8 10 10 12 14 15 16 18 19 20 22 22 21 20 19 20 20 22 23 22 21 21 22 22 21 19 18 17 15 14 14 15 16 16 17 17 16 15 15 14 13 12 11 10 11 11
7 5 5 3 1 2 3 3 2 2 0 3 5 5 4 4 5 5 3 1 2 5 6 8 10 8 6 7 5 3 5 5 5 4 6 7 7 7 8 7 6 8 10 12 13 14 16 19 20 20 21 22 20 17 17 17 17 19 20 19 19 20 20 19 18 17 16 15 14 13 13 14 15 15 16 16 16 16 15 15 15 15 15 14 14 15
4 3 2 2 2 3 3 3 2 1 1 4 6 7 5 3 3 3 2 1 3 7 7 7 8 5 3 4 3 4 6 7 7 7 7 7 7 7 9 10 12 13 15 17 16 16 18 19 20 20 19 19 17 16 16 16 16 17 17 17 18 18 17 17 16 16 16 16 16 16 15 15 15 16 16 17 17 17 16 16 16 16 17 17 17 18
2 2 2 3 2 2 3 3 2 1 2 5 6 6 4 3 2 2 3 3 5 8 9 9 8 6 6 7 7 8 9 9 9 8 7 7 7 7 10 13 15 16 16 17 17 18 19 18 18 18 17 16 15 15 14 14 15 15 13 15 16 16 16 16 17 17 17 17 18 18 18 18 17 17 18 18 19 19 19 18 17 17 17 18 19 20
1 1 2 2 2 1 3 3 2 1 3 6 4 4 5 3 2 2 4 5 6 8 8 8 8 7 8 10 11 11 11 11 10 10 9 9 8 10 13 14 14 16 17 16 16 16 17 17 17 17 16 14 14 14 13 13 14 15 15 16 17 16 16 17 18 18 17 18 19 19 19 19 19 19 19 19 20 21 22 21 20 19 18 19 19 20
3 1 2 1 1 1 3 2 1 2 5 7 5 4 2 3 3 5 7 7 6 6 6 6 7 8 9 10 10 11 11 10 9 9 8 8 7 9 12 13 14 16 16 14 14 14 15 16 16 15 15 14 14 14 15 15 16 17 17 18 17 17 17 18 18 18 18 18 19 20 20 20 20 20 20 21 21 21 22 22 22 21 21 21 22 21
3 5 5 3 3 3 3 3 4 5 5 7 7 6 5 7 7 8 9 8 6 5 5 6 7 8 8 9 9 9 8 8 8 8 7 7 6 8 9 10 12 15 14 11 11 12 14 15 15 14 15 15 15 15 15 15 16 17 18 18 17 18 18 18 18 19 18 18 19 20 20 20 20 20 21 21 21 21 21 22 22 23 23 23 23 23
5 7 6 5 5 6 6 6 7 8 7 8 8 7 8 9 8 8 10 9 7 6 6 6 8 8 9 9 9 8 7 6 7 7 6 6 6 8 10 10 12 14 12 9 8 11 15 16 14 13 15 14 13 13 13 14 15 16 17 17 17 18 18 18 19 19 19 18 18 19 19 20 20 20 20 20 20 21 21 22 22 23 23 23 23 23
3 5 5 4 4 4 4 5 6 7 7 7 8 7 8 8 7 7 8 7 7 7 6 7 8 8 8 8 7 6 6 6 6 6 5 5 6 8 9 10 11 11 10 8 9 13 16 16 12 11 13 13 11 10 12 14 15 16 16 16 18 19 19 18 19 19 18 18 18 17 17 18 19 20 20 20 21 22 22 22 23 23 23 23 24 24
3 4 4 3 3 4 5 5 5 6 7 7 7 6 6 7 7 7 7 7 7 7 8 8 8 7 6 6 7 7 6 5 4 5 5 4 6 8 8 8 10 11 10 11 13 15 15 13 10 10 12 11 9 10 12 14 14 14 15 16 18 19 18 18 18 18 17 17 17 16 16 17 19 20 21 21 22 23 24 24 24 24 23 22 22 23
3 4 3 4 5 5 6 6 5 6 7 7 7 6 5 5 7 7 8 8 8 8 8 9 9 9 8 7 7 7 6 6 5 5 5 5 6 7 5 5 9 12 12 12 12 13 12 10 7 9 10 9 8 10 12 12 11 11 13 14 15 15 16 15 15 15 15 16 16 16 17 18 20 20 20 20 21 22 23 22 22 23 23 23 22 21
4 5 4 4 5 3 3 5 5 5 5 4 5 6 6 6 7 8 8 8 7 7 6 6 8 9 10 11 11 8 6 5 8 8 7 6 6 5 4 4 9 13 14 14 13 12 11 8 5 7 7 6 7 9 10 8 6 8 10 12 12 13 14 13 13 13 13 14 16 16 16 17 18 18 18 19 21 22 23 22 21 21 22 23 23 22
4 4 3 5 5 2 2 3 4 5 5 4 5 6 6 6 6 7 8 7 6 7 7 6 5 5 6 10 14 12 8 6 8 9 8 7 7 7 7 8 7 7 12 15 14 12 10 7 6 7 5 4 5 6 7 5 5 7 10 10 11 12 13 12 12 12 13 14 15 15 16 17 18 19 20 20 21 23 24 25 25 24 22 23 23 23
Wind_Direction
169 201 225 219 223 224 225 224 233 247 248 252 265 269 258 255 249 245 242 240 224 185 200 192 178 205 213 227 246 257 284 261 157 135 138 148 144 145 145 143 139 128 116 121 136 153 166 168 156 144 151 152 132 129 129 121 127 142 149 152 155 157 157 154 152 147 145 147 149 153 158 154 148 146 143 139 139 140 137 129 131 136 134 136 138 140
176 203 227 224 223 228 233 227 226 241 255 261 269 278 282 279 269 269 262 245 215 167 194 185 171 201 206 216 236 234 232 229 139 131 143 149 147 147 145 143 139 124 120 137 152 158 154 154 151 144 149 146 128 124 124 122 131 142 148 151 153 152 152 157 154 148 147 149 153 157 154 147 139 139 137 131 130 133 134 134 135 134 135 139 135 135
198 227 228 224 227 230 236 238 229 234 247 257 267 279 283 279 288 292 279 259 214 156 185 182 178 206 205 211 225 201 179 189 164 149 153 156 154 153 150 148 143 130 137 156 152 140 144 147 139 135 142 138 123 123 133 139 140 143 148 150 150 150 155 162 154 147 152 157 159 153 149 150 144 138 137 133 131 132 131 130 132 132 132 133 131 131
205 232 221 221 231 232 239 243 231 230 250 247 244 257 269 270 288 299 290 287 213 131 146 164 177 233 215 212 227 213 179 186 182 156 152 161 160 154 152 149 143 141 155 158 135 131 144 132 122 127 136 126 118 132 150 151 140 139 146 149 152 157 163 163 153 152 161 159 160 157 152 151 142 133 132 130 131 134 133 133 137 141 134 124 132 137
232 233 211 214 230 231 242 248 223 163 275 265 235 236 261 272 282 299 308 332 4 44 87 104 55 318 267 213 246 264 205 189 182 150 147 155 150 142 139 140 145 153 161 148 131 139 132 114 114 125 131 126 130 148 158 154 143 140 145 149 155 159 162 161 156 160 158 144 143 143 138 136 132 129 131 133 137 139 137 137 139 139 136 122 122 127
240 239 207 207 223 226 235 245 211 159 242 298 257 240 251 265 281 300 305 335 7 338 14 85 71 302 302 282 260 274 223 199 173 155 148 123 125 130 129 138 153 154 140 119 119 125 110 104 114 125 131 136 147 159 162 157 150 146 147 153 157 160 164 165 163 160 151 142 139 138 135 134 132 132 137 143 147 145 138 136 137 136 136 128 123 121
237 243 223 204 210 219 223 231 196 152 186 274 264 262 264 263 269 281 295 316 321 237 252 102 117 255 309 306 269 258 230 208 159 155 133 109 118 124 127 142 150 122 89 87 90 92 99 106 117 126 131 138 149 163 166 159 153 152 155 160 161 163 167 168 165 158 151 148 145 142 141 139 137 138 142 145 145 142 138 136 138 135 131 127 128 122
217 233 242 222 210 210 204 209 186 150 170 233 242 263 273 273 259 243 267 285 240 175 201 122 126 157 296 283 269 262 253 207 155 153 118 115 121 118 130 138 114 91 84 90 91 90 103 110 115 120 122 135 150 161 165 161 160 163 165 165 164 164 165 165 163 159 156 153 148 143 142 142 141 140 137 135 135 136 136 136 138 138 135 131 131 122
204 214 233 244 236 190 161 188 188 169 199 234 227 241 262 272 266 240 219 261 268 87 323 259 136 128 271 267 279 277 252 212 173 145 117 121 124 122 133 114 93 96 97 102 107 112 126 128 125 126 127 142 155 161 165 166 170 171 168 165 163 162 163 164 164 163 161 155 149 146 146 145 143 140 136 134 133 134 134 139 143 141 135 130 128 126
216 204 204 219 235 205 195 199 195 199 212 224 225 240 263 272 277 269 219 238 38 99 264 262 157 135 265 270 282 285 243 215 190 140 127 129 129 131 127 106 100 106 107 116 130 142 147 143 139 140 147 157 161 164 169 173 178 174 169 167 165 164 164 165 165 165 161 155 151 149 148 146 143 141 140 137 136 137 138 138 138 135 129 126 119 112
257 236 190 198 206 194 213 219 217 223 219 213 218 237 262 267 280 270 220 153 86 192 239 238 206 160 262 281 256 255 240 195 162 132 131 131 127 126 112 107 114 115 117 129 139 146 148 147 145 147 154 159 161 167 173 179 180 175 172 171 169 168 168 167 168 165 160 157 154 146 144 147 146 145 145 142 142 144 142 134 129 130 132 133 133 112
245 254 204 203 201 172 202 231 236 230 218 212 214 210 243 277 325 328 287 114 134 253 226 210 217 182 205 270 264 322 331 163 142 133 138 134 125 117 108 114 123 122 128 135 135 144 149 149 152 153 157 160 162 168 174 179 180 176 177 177 175 175 173 172 172 167 163 162 156 143 143 149 151 150 150 148 148 149 144 138 135 134 131 130 144 144
242 245 202 213 265 149 201 230 257 251 216 196 208 188 182 310 353 348 306 177 197 246 216 194 214 214 205 257 292 31 29 51 117 131 139 133 122 114 114 122 130 134 139 139 141 153 158 159 164 163 163 165 168 171 174 177 179 179 181 182 180 179 177 177 178 174 168 164 153 142 147 155 154 154 154 151 151 151 146 146 145 138 135 134 139 147
266 267 228 206 200 194 209 212 239 264 196 166 185 157 145 139 103 271 264 207 207 242 226 193 200 236 235 306 342 59 66 63 97 120 129 127 121 116 118 126 134 145 148 147 152 160 164 166 168 165 166 172 176 174 174 177 180 182 184 183 183 181 178 181 184 179 170 164 154 150 156 161 159 157 155 152 153 154 152 153 152 146 142 140 138 138
227 253 240 223 197 176 200 219 224 243 183 180 193 156 165 164 165 216 212 181 222 255 262 165 162 216 165 245 319 67 83 76 86 99 105 110 113 114 119 126 133 143 146 146 154 160 163 163 164 167 169 172 176 174 174 178 183 186 185 183 183 182 182 186 186 177 168 163 157 157 163 165 163 159 156 154 154 157 156 154 153 154 150 143 140 140
228 236 214 214 210 175 187 218 230 265 317 268 229 170 213 193 160 191 187 177 177 94 325 75 141 230 161 221 286 67 77 76 87 89 94 105 110 112 118 125 130 135 133 139 152 155 151 146 152 165 166 162 167 173 177 182 187 189 187 186 186 186 187 188 184 175 168 163 160 163 167 166 164 160 156 155 157 158 157 155 156 154 149 143 141 139
222 257 255 216 213 195 187 197 197 197 223 296 328 205 230 198 147 142 259 242 106 97 281 143 113 312 89 215 286 75 74 69 79 80 86 99 105 110 116 124 128 127 130 139 148 148 141 127 134 154 157 153 163 177 186 191 192 190 188 188 189 190 191 188 182 179 175 167 164 167 168 167 165 162 160 159 159 158 155 155 157 152 146 144 142 140
202 255 298 239 210 220 199 193 204 195 160 142 227 222 243 1 103 113 125 348 49 115 263 154 142 159 81 229 309 79 81 76 80 79 78 84 95 105 111 119 125 128 131 127 121 125 128 131 145 157 157 157 169 183 193 196 197 196 193 191 191 191 193 189 184 184 181 174 168 168 169 169 167 166 164 163 160 157 153 154 154 150 147 146 143 141
121 262 293 331 132 306 316 195 216 227 173 167 206 201 127 65 29 19 126 155 123 180 282 335 136 115 87 251 302 91 103 96 85 81 82 85 95 104 106 113 121 131 131 123 123 133 136 151 169 167 158 159 172 186 197 200 201 201 198 195 192 193 195 192 188 186 183 178 171 167 169 170 171 171 168 164 161 158 152 151 151 148 147 145 143 142
121 135 283 316 6 4 346 296 221 240 228 219 239 118 94 132 162 157 158 159 146 178 242 343 19 7 269 267 280 127 130 110 94 88 88 96 107 115 123 125 125 130 131 130 135 144 149 162 179 175 160 160 172 184 193 198 205 206 203 198 192 192 195 192 188 184 180 179 174 168 170 173 174 174 171 166 162 159 152 148 149 149 147 144 145 147
103 130 208 300 350 52 8 295 269 305 274 240 236 194 117 109 148 144 186 174 138 145 185 146 342 281 261 285 39 101 114 109 106 104 101 107 119 128 135 128 122 120 123 130 137 147 158 157 167 171 151 153 168 181 187 195 207 207 201 198 190 186 188 186 183 180 176 177 176 171 171 175 178 177 172 167 161 157 155 151 150 151 148 147 150 153
291 147 173 238 331 84 233 302 9 27 5 333 219 216 186 140 116 109 312 272 146 128 177 156 147 266 285 341 76 93 89 97 103 107 109 110 118 126 125 119 121 125 132 142 145 152 160 156 162 161 135 146 170 182 185 189 196 196 193 198 193 183 178 174 175 176 172 172 178 178 175 175 179 180 171 164 161 159 158 157 156 155 151 152 157 158
272 109 131 180 202 180 258 325 14 42 23 15 30 6 6 68 111 134 187 266 349 23 322 104 109 257 299 344 107 121 109 95 89 92 97 94 98 101 101 109 104 102 115 121 131 141 137 140 148 135 118 144 173 183 188 183 177 185 192 196 190 178 168 165 171 178 175 173 180 184 184 180 179 177 167 160 159 160 162 161 161 161 159 160 162 160
323 46 77 350 304 358 356 340 5 43 36 23 20 21 25 22 16 135 166 161 135 215 61 70 54 253 304 353 63 111 97 79 75 83 90 87 82 82 81 77 60 47 29 27 63 66 60 86 111 111 116 153 181 184 185 175 169 182 185 174 151 155 160 162 168 176 176 173 177 186 191 186 175 168 162 158 159 163 165 166 168 169 167 166 166 166
316 337 63 47 9 352 354 348 359 21 35 42 7 23 36 28 17 16 73 79 91 204 140 114 197 243 321 7 28 81 86 70 57 69 85 90 86 80 78 68 48 38 30 32 52 56 53 67 82 92 122 170 198 170 135 116 123 156 156 120 109 141 156 160 168 177 179 174 163 153 151 110 127 142 152 160 169 173 172 172 176 175 170 170 171 173
35 279 243 103 126 179 276 224 226 331 19 33 11 29 39 32 23 23 82 76 75 203 123 120 154 169 105 47 40 66 82 78 60 54 61 72 80 77 73 68 59 59 57 49 50 50 53 64 55 48 60 53 41 71 87 90 79 51 50 68 64 58 68 86 152 180 190 194 184 148 75 65 118 140 148 164 177 183 183 181 180 175 173 177 178 178
127 262 266 133 155 172 172 183 183 144 84 47 22 31 39 38 34 47 81 83 192 137 79 129 147 131 107 75 61 60 72 77 71 61 55 54 58 57 54 56 62 73 71 61 59 58 58 67 60 50 56 50 52 86 97 89 85 77 64 73 66 52 53 59 110 152 162 184 185 168 140 154 165 166 166 171 177 182 184 182 181 180 179 181 182 183
117 279 296 268 230 163 150 138 106 96 88 71 50 39 41 45 43 54 71 292 261 130 73 329 131 122 115 90 73 64 74 79 79 78 74 65 57 58 65 62 55 63 71 67 64 61 58 65 68 66 71 68 70 90 95 81 82 94 92 87 90 124 166 172 164 158 148 155 162 152 141 157 171 178 180 178 179 180 178 178 182 187 191 194 193 193
54 153 278 256 228 158 150 134 115 110 99 70 68 57 51 50 47 54 38 305 299 126 134 130 104 92 75 65 60 66 80 83 85 87 89 90 87 87 85 74 62 60 63 62 57 55 53 53 55 59 68 74 76 83 92 97 99 99 98 108 127 140 145 155 173 165 131 122 144 143 149 163 173 185 188 184 185 184 179 182 186 188 197 205 198 195
2 17 325 310 245 220 194 150 133 123 94 42 51 83 80 71 61 53 17 353 37 83 109 108 93 72 33 33 51 67 78 77 75 74 71 76 83 85 82 78 77 73 68 64 60 58 56 52 52 52 50 49 50 53 59 79 110 121 114 111 116 114 110 113 156 167 142 132 144 151 165 172 178 192 198 199 201 190 181 187 192 191 198 199 187 186
6 336 338 359 358 270 204 133 116 101 87 48 12 89 99 85 66 50 19 14 49 62 56 77 88 74 19 33 57 60 68 71 67 65 68 70 75 83 84 82 83 80 75 72 67 62 58 49 48 50 47 43 40 39 39 45 66 106 119 113 109 112 123 132 138 138 129 123 130 155 169 177 190 206 210 213 215 199 191 201 204 202 207 204 192 189
28 347 3 25 18 327 346 75 96 89 79 52 23 18 47 77 83 71 36 44 98 96 55 48 80 83 9 49 62 52 57 71 69 66 72 73 75 82 85 83 82 79 78 78 72 67 64 55 51 51 48 45 41 39 40 43 46 50 60 93 121 126 131 135 131 123 111 105 112 129 139 154 185 208 206 209 208 196 200 211 208 210 221 221 215 213
147 116 71 61 63 339 338 356 79 86 67 42 359 332 320 95 101 82 61 74 112 119 99 84 102 103 88 83 77 60 53 65 68 65 74 80 79 79 80 79 78 76 74 73 69 67 66 63 62 59 53 49 43 37 39 45 46 44 46 57 83 99 99 93 92 99 109 119 136 153 156 163 177 184 183 184 186 187 193 200 203 214 232 237 238 240
121 104 115 109 96 337 331 354 39 71 63 340 293 304 296 122 103 86 82 95 100 96 101 112 111 99 86 84 86 79 61 56 50 44 57 73 79 78 74 70 72 73 70 67 63 61 62 61 60 56 52 48 44 40 41 44 45 45 48 53 58 63 65 62 58 59 63 70 80 94 116 148 166 170 173 176 176 178 181 185 201 222 235 240 246 251
106 94 105 103 90 340 335 18 40 67 88 274 302 340 20 82 91 85 79 81 96 103 103 106 110 107 97 88 91 94 86 75 61 45 46 58 71 81 79 68 66 71 68 63 59 55 53 55 55 51 47 44 44 45 44 43 44 45 47 49 49 50 53 55 50 45 43 45 46 47 48 50 56 65 86 122 143 156 170 181 197 218 236 249 258 262
121 108 105 112 103 106 63 58 91 172 350 324 335 3 18 32 51 64 58 37 67 109 112 109 113 112 107 106 107 108 107 98 79 56 47 53 60 73 83 80 74 74 73 71 69 64 59 58 60 57 49 43 43 45 44 43 43 44 45 45 43 42 45 49 46 39 35 36 37 37 35 32 32 35 39 43 53 63 104 192 204 214 232 255 269 272
120 116 106 116 116 122 121 92 72 118 7 352 356 5 11 11 344 0 70 38 36 98 115 116 119 120 120 123 128 131 122 98 75 51 25 48 63 66 75 80 79 81 85 86 82 79 74 69 65 61 54 47 41 38 38 41 44 44 44 42 41 41 42 43 40 35 31 30 29 30 29 26 23 23 23 26 30 31 30 30 26 231 237 252 267 269
75 73 80 126 128 93 114 111 88 133 25 340 338 331 335 3 340 331 76 82 59 100 120 123 129 134 135 137 148 157 128 76 67 48 333 37 74 73 72 75 79 83 87 86 83 80 76 72 65 59 56 53 46 35 30 34 39 42 41 39 39 40 40 38 34 31 29 26 22 21 20 18 17 15 14 15 13 9 8 12 14 6 341 312 292 274
39 33 39 74 81 54 96 118 119 122 161 288 305 313 319 349 359 1 54 92 96 121 126 126 132 139 143 149 163 170 120 80 94 162 189 164 121 94 92 92 94 96 89 81 82 82 76 71 67 62 57 55 51 42 35 33 36 41 42 39 39 38 34 31 28 25 23 21 19 17 12 9 8 6 5 4 1 356 351 349 349 346 342 337 328 311
34 31 34 45 65 67 79 88 78 87 73 303 309 308 306 333 10 40 84 108 91 101 112 121 129 138 153 164 168 140 111 125 150 162 165 168 156 136 137 135 111 92 70 57 65 79 80 72 66 62 57 54 52 48 44 40 40 43 42 39 38 34 26 20 17 15 13 10 9 8 5 3 2 360 358 354 349 346 343 338 333 327 324 320 318 319
36 29 30 33 74 84 85 94 98 98 289 299 299 296 298 323 21 67 133 182 87 84 91 105 115 123 137 150 143 106 103 121 131 134 142 146 140 133 128 112 93 79 62 50 52 68 78 73 66 63 58 52 49 48 46 45 44 41 38 35 32 25 18 14 11 9 6 1 359 359 356 354 352 350 350 350 347 343 339 335 331 325 318 311 307 306
9 10 22 13 17 66 92 100 98 87 273 268 274 302 345 47 93 102 131 134 101 94 93 92 93 90 80 83 93 97 97 98 101 102 99 94 90 85 81 82 82 76 66 54 51 63 76 75 69 67 62 53 50 48 47 47 41 36 35 33 26 18 15 14 12 9 8 5 3 1 357 355 352 347 343 341 341 341 340 337 334 329 323 314 305 301
358 61 63 23 350 41 73 76 102 116 313 308 312 349 12 45 105 93 89 90 85 91 96 91 85 82 79 78 82 88 90 87 86 84 78 72 70 67 65 67 71 71 66 55 48 58 74 76 70 66 60 55 54 50 46 46 41 37 36 32 23 16 13 10 8 6 6 5 5 3 2 359 356 354 350 345 341 339 338 337 335 334 334 330 320 307
357 46 97 20 322 42 79 77 83 65 9 7 43 76 44 43 72 82 83 75 61 66 81 84 79 77 82 87 87 86 87 85 82 82 82 76 71 70 67 66 71 72 68 57 51 59 72 74 71 68 63 58 56 51 46 44 40 36 32 26 18 14 11 8 6 5 3 3 0 358 356 354 353 353 352 348 344 340 337 336 333 331 332 334 333 326
44 88 94 61 37 63 98 110 89 76 52 41 61 80 65 52 57 74 83 80 65 56 62 75 75 66 66 78 84 84 88 93 92 91 88 84 86 90 86 82 85 85 77 66 63 71 78 76 72 71 67 60 54 49 44 40 37 34 30 23 16 12 10 6 5 5 4 1 357 354 352 349 347 347 346 345 346 344 342 340 338 336 335 333 333 333
103 103 95 86 84 76 74 81 84 83 74 63 62 65 63 61 62 71 80 81 76 68 63 70 76 71 65 68 71 69 70 81 91 96 101 102 103 105 102 97 95 91 84 78 79 83 84 80 72 68 67 62 53 48 43 39 37 35 30 23 16 11 8 4 2 0 359 357 353 352 350 347 346 346 344 344 347 346 345 346 346 345 345 344 343 342
70 85 84 104 126 106 80 80 89 95 97 89 78 68 64 65 65 68 77 84 84 80 75 72 78 85 86 83 83 83 77 78 86 95 103 107 105 105 106 108 105 96 82 74 81 82 80 75 67 65 69 63 49 41 40 40 38 32 25 17 10 3 360 360 0 358 355 353 350 347 347 347 348 348 347 345 345 344 343 343 343 344 345 346 348 346
12 57 70 85 94 96 104 109 100 93 92 90 86 80 76 76 75 75 78 80 77 73 69 66 70 81 91 93 94 92 80 72 87 105 108 100 98 102 107 118 125 118 99 84 82 81 78 71 57 58 68 60 37 30 38 39 34 25 15 5 358 353 351 354 357 356 352 349 346 346 349 349 347 344 343 341 339 339 338 336 336 337 337 339 341 340
18 44 63 94 93 89 106 121 118 95 81 81 91 103 109 102 94 89 84 81 80 76 69 62 61 65 73 86 94 91 75 53 50 76 92 84 82 91 100 122 131 125 112 101 94 86 81 75 57 55 62 51 29 30 36 32 23 14 4 356 352 354 356 355 353 351 349 346 345 345 345 343 340 338 337 335 330 328 330 331 331 331 328 328 328 328
47 50 51 93 104 107 125 137 145 126 100 100 117 120 122 123 118 113 106 98 94 92 86 78 71 65 67 80 91 93 85 59 45 56 77 82 76 72 57 75 109 119 118 114 112 106 100 97 86 76 66 41 30 32 24 14 16 15 4 359 1 5 4 357 351 348 344 340 339 339 338 338 337 334 333 331 326 323 322 322 324 325 324 323 322 319
72 81 81 97 108 139 151 131 133 127 125 148 150 134 135 141 131 122 120 124 130 128 122 114 104 91 79 87 96 100 100 87 67 62 66 68 63 61 47 41 58 102 122 120 114 110 108 104 99 96 81 48 41 24 355 357 38 30 12 8 11 9 3 355 348 341 336 333 332 332 334 335 334 331 329 326 323 321 319 317 316 317 318 320 321 319
Height
738 749 753 752 751 747 743 740 741 739 737 737 737 739 739 740 737 725 716 707 704 717 721 719 725 724 722 718 711 708 710 711 716 725 732 734 738 742 746 749 751 754 758 760 759 757 761 767 772 776 779 783 786 787 789 792 797 799 800 803 806 808 809 809 810 811 812 813 814 815 816 818 819 820 821 822 823 824 824 825 826 826 827 827 828 829
739 752 753 745 742 738 736 735 735 735 736 736 738 740 738 737 733 721 712 703 697 712 720 716 721 724 720 716 710 709 713 713 714 725 733 733 737 741 745 750 752 754 758 758 758 758 762 768 773 776 779 783 785 787 790 792 795 798 799 801 804 806 808 808 809 810 812 813 814 815 816 818 819 820 821 822 823 824 825 826 827 827 828 828 828 829
748 751 744 736 734 733 733 732 733 735 735 737 738 741 742 735 729 721 709 698 695 708 717 715 718 721 716 712 709 709 711 710 709 718 726 728 733 738 742 747 749 753 756 755 758 762 764 768 774 779 781 784 787 789 790 790 792 795 798 799 801 804 805 807 808 810 812 814 815 816 817 817 819 820 821 822 823 824 825 826 827 828 828 828 829 829
754 744 733 729 729 731 733 731 732 734 734 737 737 741 742 732 732 734 717 700 696 702 711 715 718 719 715 711 709 708 708 706 706 711 718 721 726 731 736 740 745 750 752 752 759 765 766 770 776 781 784 787 789 790 789 790 793 797 800 799 800 802 803 804 807 809 812 814 815 816 817 817 818 819 820 822 823 824 825 826 827 827 828 828 829 829
744 730 722 726 727 729 732 731 730 734 736 735 733 736 738 730 732 735 723 710 702 700 705 714 726 725 717 716 712 707 707 707 707 710 715 719 723 728 734 740 744 745 745 751 760 765 768 772 777 781 785 789 791 790 789 791 795 798 800 800 800 801 802 803 805 808 811 812 813 814 816 817 818 819 820 821 823 824 825 826 826 827 828 828 829 830
733 720 718 725 726 726 729 730 728 730 736 737 731 728 728 727 729 730 725 723 724 721 709 713 740 742 721 718 717 711 711 711 710 710 714 720 725 731 738 742 744 744 745 752 760 765 770 773 776 780 784 787 789 789 790 792 795 797 800 801 801 801 802 804 806 808 810 811 811 813 814 816 817 819 820 821 822 823 824 825 826 827 828 828 829 829
724 715 714 720 723 723 726 728 724 723 736 742 730 721 720 721 726 729 726 731 740 736 715 711 739 749 731 721 719 714 713 713 713 713 716 724 730 736 741 743 745 748 752 758 764 769 773 775 778 781 783 786 787 789 791 793 795 797 799 800 801 803 805 806 808 809 809 810 811 813 814 815 817 818 820 821 822 823 824 825 826 827 828 828 829 830
716 714 715 714 718 721 725 727 720 718 735 740 724 718 722 720 723 726 726 732 733 727 721 717 727 745 745 729 717 713 715 717 717 717 723 730 735 740 742 743 748 754 757 762 769 773 776 779 781 782 785 787 787 788 791 792 794 796 797 799 801 803 804 806 807 808 808 809 811 812 814 815 816 818 819 821 822 823 824 825 827 827 828 828 829 830
708 713 715 712 716 721 721 719 714 716 729 729 717 716 720 718 719 719 722 729 725 727 738 730 724 746 753 731 717 716 718 722 722 723 730 734 737 741 742 746 753 757 759 764 771 775 776 779 780 781 784 787 787 788 790 791 793 794 795 797 799 801 802 803 804 806 807 809 810 812 813 814 816 818 819 821 822 823 825 826 827 828 828 829 829 829
706 706 706 708 714 717 714 711 709 715 722 717 712 715 716 715 715 716 722 726 727 736 747 735 727 748 754 732 722 725 723 723 723 727 734 734 736 740 742 750 756 757 760 763 767 771 773 774 774 774 776 780 784 787 790 791 791 793 794 795 797 798 799 800 802 804 805 807 809 810 811 813 815 817 819 821 822 824 825 826 827 827 828 828 829 830
703 697 697 702 707 708 707 707 706 710 712 710 713 717 719 719 717 719 720 720 736 750 745 732 725 740 754 738 726 727 721 714 718 729 735 733 735 740 744 752 756 758 762 761 763 767 770 772 771 771 772 775 780 785 788 789 789 791 792 793 794 796 797 798 800 802 803 805 807 808 809 810 813 815 817 820 821 823 825 825 826 826 827 828 829 830
703 702 701 699 699 700 705 708 706 704 705 709 716 721 729 731 726 728 726 725 750 760 741 727 722 735 753 742 726 725 715 705 711 726 734 734 736 740 746 755 758 760 761 760 763 767 769 771 771 771 772 774 777 781 784 786 787 788 789 790 791 793 794 796 798 799 801 803 804 804 805 808 811 813 816 818 820 822 823 824 825 825 826 828 829 831
709 707 703 699 697 698 707 714 711 707 706 712 717 723 739 747 745 750 747 743 755 754 733 723 725 738 748 735 726 725 717 709 711 719 727 731 735 741 748 757 761 760 761 761 764 766 767 769 769 770 771 773 775 776 778 781 783 785 787 788 789 790 792 794 796 797 798 799 799 800 803 807 810 812 814 817 818 820 821 822 823 824 825 827 829 831
722 712 703 704 703 698 705 717 721 716 710 715 721 727 743 754 763 768 759 752 755 745 728 720 727 744 746 733 727 725 719 716 715 718 723 726 732 741 750 757 761 761 761 762 763 764 765 767 769 770 771 773 774 774 775 778 781 783 784 786 787 788 790 792 794 795 795 796 797 799 803 806 809 811 813 815 817 819 820 821 822 824 825 827 829 831
735 731 713 708 706 700 702 709 714 712 709 711 711 718 734 742 754 763 757 756 757 746 733 727 735 751 750 739 729 722 719 719 720 723 725 728 734 742 750 757 761 763 762 762 763 763 765 767 769 770 771 774 776 777 778 780 781 783 784 785 786 787 789 791 792 792 791 793 796 799 803 805 808 810 812 814 816 818 820 821 822 823 825 827 829 830
731 729 707 699 698 696 701 701 699 708 716 713 705 716 730 727 731 745 749 748 749 749 744 739 744 747 742 738 730 722 723 723 725 730 731 735 739 744 751 756 758 762 762 762 762 763 765 767 769 772 773 775 778 779 780 780 782 782 783 784 785 786 788 789 789 789 791 793 796 799 802 805 807 809 811 813 815 817 819 821 822 823 825 827 828 830
728 723 700 695 696 692 697 697 695 707 720 718 716 722 720 710 715 735 747 742 742 754 750 742 749 746 738 741 734 727 732 732 733 737 739 742 745 748 754 756 758 761 762 762 762 763 765 767 770 773 774 775 776 779 780 780 781 781 782 783 784 785 787 787 787 788 791 793 796 799 802 805 807 809 811 813 815 817 818 820 822 823 825 826 828 830
721 723 704 697 703 696 690 693 694 696 705 717 723 717 708 708 713 727 747 751 752 762 751 740 751 753 750 751 741 737 742 741 742 745 747 750 751 754 757 758 760 761 763 765 764 766 767 768 771 773 773 773 774 777 779 779 780 779 780 781 782 784 785 786 787 789 792 794 796 799 802 805 808 810 812 813 815 817 818 820 821 822 824 826 828 830
713 726 713 696 703 701 690 697 704 697 695 704 709 702 708 728 734 733 746 756 760 765 756 748 754 757 760 757 747 747 749 747 749 751 753 757 756 757 759 761 763 762 764 767 767 768 769 769 772 771 769 770 772 775 777 778 779 779 780 781 782 784 785 787 790 792 794 797 799 801 803 806 808 810 812 814 816 818 819 820 821 822 824 826 827 829
707 726 725 701 697 701 698 705 716 711 700 697 700 702 709 724 732 735 741 747 755 763 761 761 764 764 763 756 749 751 751 750 755 757 758 760 760 760 761 762 765 766 767 769 769 769 768 770 773 771 768 768 770 773 775 778 780 780 781 782 782 784 786 789 792 794 797 799 801 803 805 808 810 812 814 815 816 818 819 820 821 822 824 826 828 830
707 720 728 713 701 706 713 713 714 714 710 708 711 714 716 718 722 730 736 735 742 757 763 766 772 768 759 752 750 752 752 751 755 758 760 761 761 761 761 762 766 768 769 771 771 771 770 771 773 773 771 770 771 773 775 778 781 782 783 784 784 785 787 790 793 796 799 801 803 805 807 809 811 813 814 815 817 819 820 821 822 823 824 826 828 830
715 718 723 721 715 718 720 712 707 710 712 713 715 714 715 719 725 738 746 736 731 746 753 756 770 771 757 751 752 753 754 753 754 757 761 763 763 764 765 765 766 768 769 770 769 770 772 772 774 774 774 773 773 774 776 779 782 784 785 786 786 787 788 791 795 797 800 802 804 806 808 810 812 813 814 816 818 819 820 821 822 823 825 826 828 830
714 716 720 722 719 718 715 707 705 709 708 710 716 717 717 720 726 736 748 744 737 743 745 748 768 772 760 755 755 754 756 756 756 759 762 766 768 768 769 769 769 769 770 771 771 772 773 775 775 776 776 776 776 776 779 781 783 785 786 787 788 789 791 794 797 799 801 803 805 807 809 811 812 813 815 817 819 820 821 822 823 824 825 826 828 830
712 717 723 725 719 714 712 706 705 708 711 718 724 724 726 730 728 727 734 739 741 746 748 756 773 773 762 760 755 752 756 758 760 763 764 768 771 770 772 773 773 774 774 776 777 776 776 778 778 778 779 780 780 781 782 785 785 786 787 788 789 791 795 797 799 800 801 803 806 808 810 812 813 815 817 819 821 822 823 823 824 824 825 827 828 829
721 725 728 734 737 733 728 722 720 722 725 731 733 731 732 733 728 726 731 736 742 746 746 759 775 772 763 764 759 753 756 760 762 765 766 771 772 772 775 777 777 777 778 779 779 779 779 780 781 784 785 786 787 787 787 788 789 789 789 790 791 793 796 798 799 801 802 803 805 808 811 814 816 818 820 821 822 822 823 824 825 826 827 828 829 830
728 732 730 738 748 750 747 743 740 738 736 736 737 736 738 738 734 734 737 739 745 747 744 754 770 771 765 768 767 761 761 763 764 765 768 772 775 776 778 780 779 779 781 781 780 783 785 785 788 792 792 793 794 793 792 793 793 793 793 793 795 797 799 800 801 803 805 806 807 809 812 816 819 821 822 822 822 822 823 824 826 827 828 828 829 830
731 733 727 731 738 740 742 741 735 733 738 743 742 741 744 745 744 745 745 746 749 748 751 756 761 768 771 770 770 769 769 771 771 770 771 774 776 777 779 781 782 782 785 785 786 790 792 793 795 797 796 797 798 796 795 796 795 796 796 796 797 799 802 803 804 806 808 810 810 812 814 817 820 821 821 821 821 822 823 824 826 827 828 829 829 830
732 734 728 727 729 727 729 730 729 729 735 741 742 746 750 749 751 754 757 760 754 749 759 763 758 765 774 772 773 774 774 776 778 777 777 777 778 779 780 783 787 787 788 790 793 797 799 801 802 800 798 800 801 798 796 797 797 799 801 801 801 802 803 804 804 805 809 811 811 813 815 817 819 820 820 820 820 822 823 824 826 827 828 829 829 830
733 735 731 727 725 724 723 725 728 731 734 737 740 747 753 753 756 760 762 763 752 746 760 768 764 770 777 775 777 778 776 779 781 781 781 781 781 784 786 790 795 796 796 798 801 803 806 807 807 805 803 802 802 799 798 798 799 800 803 805 805 806 805 805 806 807 810 812 812 813 815 816 817 819 820 820 821 822 823 824 825 827 828 829 829 830
737 738 738 734 727 724 724 725 728 730 734 739 741 745 752 756 758 760 761 760 754 753 764 769 773 782 786 783 783 782 781 782 784 786 788 789 790 792 795 800 803 804 804 805 806 807 808 809 808 806 805 804 803 803 802 802 801 802 804 805 805 806 806 807 809 810 813 815 814 813 815 816 817 819 820 821 822 823 823 824 826 827 828 828 829 829
743 744 745 744 738 730 724 725 729 731 737 743 744 745 750 756 759 760 761 761 762 769 775 776 783 794 793 788 787 786 785 786 790 794 796 798 799 800 803 806 807 806 807 809 810 810 809 809 807 806 805 806 806 805 805 805 805 805 805 805 807 808 809 811 812 812 814 814 814 814 815 816 818 820 821 822 823 824 825 826 826 827 827 828 828 829
745 748 749 752 752 745 734 731 732 734 740 748 753 755 755 755 760 764 764 764 768 776 782 785 792 799 797 791 790 791 791 792 798 801 801 803 804 804 806 809 808 807 808 810 812 811 811 811 810 809 809 809 808 808 808 808 807 807 807 808 809 810 811 813 813 813 813 813 814 816 817 818 820 822 823 822 823 825 827 827 826 826 827 827 828 828
744 748 754 758 760 758 752 745 738 740 751 762 765 765 762 759 760 764 766 768 770 772 778 787 795 799 798 793 793 798 800 800 804 805 805 807 807 807 809 810 810 810 810 812 813 813 813 814 813 812 811 810 810 810 810 808 807 809 810 809 810 811 813 814 815 815 816 817 819 819 820 821 824 825 826 825 826 828 828 826 825 825 826 826 827 828
745 746 755 760 760 761 761 752 745 752 769 777 771 763 760 758 760 765 770 772 771 771 776 787 795 798 799 797 798 805 808 809 811 811 809 809 810 811 813 813 813 813 812 813 814 814 815 815 814 813 812 811 811 810 810 809 810 811 812 812 813 814 815 816 817 818 820 821 823 824 824 825 826 826 827 827 827 826 825 824 824 825 825 826 827 827
745 747 755 760 762 766 768 761 761 771 780 779 772 765 759 757 759 765 771 772 772 776 783 791 797 800 802 804 807 810 812 814 816 816 814 813 813 814 815 816 815 814 813 814 814 814 815 814 814 814 813 812 812 810 810 811 812 813 813 814 815 816 816 816 817 818 820 821 822 823 824 825 825 825 825 825 825 824 823 823 823 824 825 825 826 827
743 746 753 760 765 770 772 771 773 780 780 775 773 771 768 766 767 769 776 780 778 781 788 796 801 803 805 809 812 812 813 813 815 818 818 816 816 815 815 817 816 814 814 815 815 815 816 816 815 815 815 814 813 812 813 814 815 816 816 816 817 817 817 817 818 819 820 821 821 822 823 824 824 824 824 824 824 824 824 824 823 824 824 825 825 826
737 742 748 756 762 764 769 777 781 782 782 781 781 782 782 784 783 779 783 789 787 785 791 796 802 805 807 809 811 811 809 810 814 820 820 817 817 817 816 816 816 815 815 816 816 817 817 817 817 816 816 815 814 815 816 816 817 818 819 819 819 819 820 819 820 821 822 822 823 823 824 824 824 824 824 824 824 824 824 825 825 825 825 825 825 825
739 744 746 752 760 760 766 778 782 782 787 790 789 787 784 785 786 781 782 791 792 790 792 795 800 805 806 807 809 807 805 810 819 825 822 819 819 818 817 818 817 816 816 816 817 817 817 818 817 817 818 817 817 818 818 818 819 819 821 822 822 823 823 823 824 824 824 824 824 824 825 825 825 825 825 825 825 825 824 824 824 825 825 825 825 825
745 750 753 756 762 762 764 773 779 784 792 795 791 786 781 782 784 779 784 795 795 791 794 796 799 804 804 804 806 804 805 816 826 826 822 821 821 820 820 821 819 818 818 818 817 817 817 818 818 818 819 820 821 821 821 821 821 821 823 825 826 826 826 827 827 827 826 826 826 826 826 826 827 827 826 826 826 826 825 824 823 823 824 824 824 824
752 757 762 765 767 766 769 778 788 794 797 794 789 784 780 780 781 781 790 799 795 790 794 797 799 803 802 802 803 803 808 817 822 821 820 821 822 821 821 822 821 820 820 819 818 818 818 819 819 820 821 822 823 824 824 824 824 824 826 828 829 829 830 830 830 830 829 829 828 828 828 827 827 828 828 828 828 827 827 826 825 824 823 823 822 822
761 763 766 768 769 769 774 786 795 798 796 792 788 785 779 778 783 790 797 801 795 793 795 796 798 801 800 800 802 804 808 812 814 816 819 820 821 822 822 822 822 821 821 821 820 820 820 821 821 822 824 825 826 827 827 827 827 828 829 830 831 831 831 831 830 830 829 829 828 828 828 827 827 827 827 827 827 826 826 825 825 825 824 823 822 821
771 770 771 774 775 773 777 789 799 800 795 789 785 782 779 782 793 799 799 796 795 795 796 797 799 801 800 801 803 806 809 812 814 817 819 820 821 822 823 823 823 823 823 823 823 823 824 824 825 826 827 828 829 829 829 829 830 830 831 831 832 832 831 830 830 829 828 828 827 827 826 826 826 825 825 825 824 824 824 823 823 823 823 823 822 821
775 776 779 783 780 777 781 793 802 803 796 786 783 786 789 793 798 798 795 795 796 796 797 799 801 802 803 805 807 809 812 815 817 819 820 822 823 824 824 825 825 825 826 826 826 826 826 827 828 828 829 830 830 830 831 831 831 832 832 832 832 832 831 830 829 828 827 827 827 826 825 825 825 824 824 824 823 823 822 822 822 822 822 822 821 820
773 775 782 786 783 783 792 801 803 802 799 791 790 797 801 800 798 796 797 800 801 801 801 803 804 805 805 807 810 813 815 817 820 821 822 824 825 826 826 827 827 827 828 828 828 828 828 829 830 830 831 832 832 832 832 832 832 832 832 832 832 831 831 830 829 829 828 827 827 826 826 825 825 824 824 824 823 822 822 822 821 821 821 820 820 819
777 776 780 786 786 786 794 801 800 800 801 798 797 801 802 801 799 799 801 804 806 807 806 806 808 809 809 809 812 814 817 819 821 822 824 826 827 828 829 829 829 830 831 830 830 831 831 831 832 832 833 833 833 833 833 833 833 833 833 833 833 832 831 830 830 829 829 828 828 827 827 826 825 825 824 824 823 823 822 822 821 820 820 820 819 818
777 775 778 786 790 790 793 797 798 801 803 802 802 803 803 803 804 803 804 806 809 810 809 809 810 811 812 813 814 816 819 821 822 824 825 827 828 829 830 831 831 832 832 832 832 832 832 833 833 833 834 834 834 834 834 834 834 834 834 834 833 832 832 831 830 830 829 829 829 828 828 827 826 826 825 824 824 823 822 822 821 820 820 819 818 817
774 774 779 786 791 795 800 801 800 802 804 804 804 806 805 806 807 807 807 809 810 811 811 812 812 814 815 816 818 820 822 823 823 825 826 827 829 829 830 831 832 832 833 833 833 833 833 834 834 834 834 835 835 835 835 834 834 834 834 833 833 832 832 831 831 830 830 829 829 829 828 828 827 826 825 824 824 823 822 822 821 820 820 819 818 817
776 775 782 788 791 796 802 802 799 801 803 804 806 808 808 809 809 809 809 810 811 812 813 814 814 815 817 818 820 821 823 824 825 826 827 828 829 830 830 831 832 832 833 833 834 834 834 834 835 835 835 835 835 835 835 835 834 834 834 834 833 833 832 832 831 831 830 830 830 829 829 828 827 826 825 824 824 823 822 821 821 820 820 820 819 818
779 780 786 792 796 800 803 802 801 804 807 806 807 808 809 810 811 811 812 812 813 814 815 816 817 817 818 820 821 822 824 826 826 827 828 829 830 831 831 832 832 833 833 834 834 835 835 836 836 836 836 836 836 836 835 835 835 835 834 834 834 833 832 832 832 832 831 831 830 829 829 828 827 826 825 824 823 823 822 821 821 820 818 818 818 818
784 789 791 794 801 807 805 801 802 807 810 810 808 809 810 810 811 812 814 814 815 816 817 818 819 820 820 821 823 824 826 827 828 828 829 830 831 832 832 832 832 833 833 834 835 835 836 836 837 837 837 837 837 837 837 836 836 835 835 834 834 833 833 833 832 832 832 831 830 830 829 828 827 826 825 824 823 821 820 820 819 819 818 816 816 815
788 793 794 797 804 807 803 800 801 806 809 809 807 808 810 810 811 813 815 816 817 818 819 820 821 822 823 823 824 826 827 829 829 830 831 832 833 833 833 833 833 833 834 834 835 836 836 837 837 838 838 838 838 838 837 836 836 836 835 835 834 834 833 833 833 832 832 831 830 830 829 828 827 826 825 823 822 820 819 817 816 816 816 815 814 813